Weather History for Jackson, WY

Change the Weather History Date:

Tuesday, May 13, 2014

  Actual Average Record
Temperature  
Mean Temperature 35 °F -  
Max Temperature 53 °F 59 °F 78 °F (2013)
Min Temperature 17 °F 27 °F 14 °F (1985)
Degree Days  
Heating Degree Days 30    
Moisture  
Dew Point 18 °F    
Average Humidity 59    
Maximum Humidity 100    
Minimum Humidity 16    
Precipitation  
Precipitation 0.00 in - - ()
Sea Level Pressure  
Sea Level Pressure 30.45 in    
Wind  
Wind Speed 6 mph (NNW)    
Max Wind Speed 14 mph    
Max Gust Speed 23 mph    
Visibility 10 miles    
Events      
Averages and records for this station are not official NWS values.
T = Trace of Precipitation, MM = Missing Value Source: NWS Daily Summary

Daily Weather History Graph

Daily Weather History Graph

Search for Another Location

Airport:

Trip Planner

Search our weather history database for the weather conditions in past years. The results will help you decide how hot, cold, wet, or windy it might be!

Date:

Astronomy

May. 13, 2014 Rise Set
Actual Time 6:00 AM MDT 8:39 PM MDT
Civil Twilight 5:27 AM MDT 9:12 PM MDT
Nautical Twilight 4:46 AM MDT 9:53 PM MDT
Astronomical Twilight 3:58 AM MDT 10:41 PM MDT
Moon 7:42 PM MDT (5/13) 5:22 AM MDT (5/13)
Length of Visible Light 15h 44m
Length of Day
14h 39m
Waxing Gibbous, 99% of the Moon is Illuminated
May 13
Waxing Gibbous
May 14
Full
May 21
Last Quarter
May 28
New
Jun 5
First Quarter

Hourly Weather History & Observations

Time (MDT) Temp. Windchill Dew Point Humidity Pressure Visibility Wind Dir Wind Speed Gust Speed Precip Events Conditions
12:15 AM 30.2 °F 21.9 °F 21.2 °F 69% 30.43 in - NNE 9.2 mph - N/A   Clear
12:35 AM 30.2 °F 20.8 °F 19.4 °F 64% 30.43 in 10.0 mi North 11.5 mph - N/A   Clear
12:55 AM 28.4 °F 20.4 °F 21.2 °F 74% 30.44 in 10.0 mi North 8.1 mph - N/A   Clear
1:15 AM 26.6 °F 19.1 °F 21.2 °F 80% 30.45 in - North 6.9 mph - N/A   Clear
1:35 AM 26.6 °F - 19.4 °F 74% 30.45 in - Calm Calm - N/A   Clear
1:55 AM 24.8 °F 16.9 °F 19.4 °F 80% 30.45 in - NNW 6.9 mph - N/A   Clear
2:15 AM 24.8 °F 16.1 °F 19.4 °F 80% 30.45 in - North 8.1 mph - N/A   Clear
2:35 AM 24.8 °F 14.6 °F 19.4 °F 80% 30.45 in - North 10.4 mph - N/A   Clear
2:55 AM 24.8 °F 16.9 °F 19.4 °F 80% 30.45 in 10.0 mi NNE 6.9 mph - N/A   Clear
3:15 AM 24.8 °F 16.9 °F 19.4 °F 80% 30.45 in 10.0 mi North 6.9 mph - N/A   Clear
3:35 AM 24.8 °F 20.5 °F 19.4 °F 80% 30.46 in - NNE 3.5 mph - N/A   Clear
3:55 AM 26.6 °F - 19.4 °F 74% 30.47 in - Calm Calm - N/A   Clear
4:15 AM 26.6 °F 22.6 °F 19.4 °F 74% 30.47 in - NNE 3.5 mph - N/A   Clear
4:35 AM 24.8 °F 19.1 °F 19.4 °F 80% 30.47 in - North 4.6 mph - N/A   Clear
4:55 AM 21.2 °F - 19.4 °F 93% 30.47 in - Calm Calm - N/A   Unknown
5:15 AM 24.8 °F - 19.4 °F 80% 30.48 in - Calm Calm - N/A   Clear
5:35 AM 21.2 °F 14.9 °F 19.4 °F 93% 30.48 in - North 4.6 mph - N/A   Unknown
5:55 AM 17.6 °F 12.3 °F 17.6 °F 100% 30.49 in - NNE 3.5 mph - N/A   Unknown
6:15 AM 21.2 °F 14.9 °F 17.6 °F 86% 30.49 in - NNE 4.6 mph - N/A   Unknown
6:50 AM 21.2 °F - 19.4 °F 93% 30.50 in 10.0 mi North - - N/A   Clear
9:58 AM 37.4 °F 34.9 °F 19.4 °F 48% 30.51 in 10.0 mi SSW 3.5 mph - N/A   Clear
11:58 AM 46.4 °F 41.9 °F 15.8 °F 29% 30.48 in 10.0 mi NW 9.2 mph - N/A   Clear
12:51 PM 48.2 °F - 15.8 °F 27% 30.47 in 10.0 mi Calm Calm - N/A   Clear
2:52 PM 51.8 °F - 10.4 °F 19% 30.44 in 10.0 mi WSW 13.8 mph 23.0 mph N/A   Partly Cloudy
3:57 PM 53.6 °F - 10.4 °F 18% 30.44 in 10.0 mi NW 9.2 mph - N/A   Clear
4:48 PM 53.6 °F - 8.6 °F 16% 30.42 in 10.0 mi WNW 9.2 mph - N/A   Clear
5:51 PM 53.6 °F - 10.4 °F 18% 30.41 in 10.0 mi WNW 11.5 mph - N/A   Clear
7:28 PM 50.0 °F - 12.2 °F 22% 30.41 in 10.0 mi NNW 8.1 mph - N/A   Clear
7:32 PM 50.0 °F - 12.2 °F 22% 30.41 in 10.0 mi North 8.1 mph - N/A   Clear
7:33 PM 50.0 °F - 12.2 °F 22% 30.41 in 10.0 mi North 5.8 mph - N/A   Clear
7:56 PM 48.2 °F - 12.2 °F 24% 30.42 in 10.0 mi Calm Calm - N/A   Scattered Clouds
8:55 PM 44.6 °F - 14.0 °F 29% 30.42 in 10.0 mi Calm Calm - N/A   Clear
9:15 PM 39.2 °F - 17.6 °F 42% 30.43 in 10.0 mi Calm Calm - N/A   Clear
9:35 PM 39.2 °F - 17.6 °F 42% 30.43 in 10.0 mi Calm Calm - N/A   Clear
9:55 PM 35.6 °F 32.8 °F 21.2 °F 56% 30.44 in 10.0 mi WSW 3.5 mph - N/A   Clear
10:15 PM 39.2 °F - 21.2 °F 49% 30.44 in - Calm Calm - N/A   Clear
10:35 PM 35.6 °F 32.8 °F 21.2 °F 56% 30.45 in - NNW 3.5 mph - N/A   Clear
10:55 PM 33.8 °F - 23.0 °F 65% 30.45 in - Calm Calm - N/A   Clear
11:15 PM 33.8 °F - 21.2 °F 60% 30.45 in - Calm Calm - N/A   Clear
11:35 PM 30.2 °F - 21.2 °F 69% 30.45 in - Calm Calm - N/A   Clear
11:55 PM 30.2 °F 25.4 °F 23.0 °F 75% 30.45 in - North 4.6 mph - N/A   Clear